Weather observations for the past three days for
Durango-La Plata County Airport
Metric (Imperial)
Date Time (mdt) Wind (kph) Vis. (km) Weather Sky Cond. Temperature (ºC) Relative Humidity Wind Chill (°C) Heat Index (°C) Pressure Precipitation (cm)
Air Dwpt 6 hour altimeter (cm) sea level (mb) 1 hr 3 hr 6 hr
Max. Min.
15 16:53 W 26 G 48 16.09 Partly Cloudy SCT120 33.9 3.9 15% 32 76.66 1011.2
15 14:53 NW 19 16.09 A Few Clouds FEW110 31.7 5.6 19% 30 76.78 1012.9
15 13:53 W 15 G 30 16.09 A Few Clouds FEW110 32.8 5.6 18% 31 76.86 1013.2
15 12:53 Calm 16.09 Fair CLR 32.2 6.7 20% 30 76.94 1014.5
15 11:53 Calm 16.09 Fair CLR 28.9 6.1 30 13.9 24% 27 76.99 1016.1
15 10:53 Calm 16.09 Fair CLR 28.3 6.7 25% 27 77.04 1016.8
15 09:53 Calm 16.09 Fair CLR 25.6 8.9 35% 26 77.06 1017.2
15 08:53 N 7 16.09 Fair CLR 22.8 9.4 43% 77.09 1017.6
15 07:53 E 7 16.09 Fair CLR 18.9 9.4 54% 77.09 1017.8
15 06:53 E 6 16.09 Fair CLR 16.1 8.3 60% 77.06 1017.8
15 05:53 Calm 16.09 Fair CLR 15 7.8 20 13.3 62% 77.04 1017.6
15 04:53 NE 11 16.09 Fair CLR 13.9 7.2 64% 77.04 1018.0
15 03:53 Calm 16.09 Fair CLR 15.6 8.3 62% 77.06 1016.5
15 02:53 Calm 16.09 A Few Clouds FEW120 17.2 7.8 54% 77.09 1017.1
15 01:53 N 13 16.09 Fair CLR 18.9 7.8 49% 77.09 1016.7
15 00:53 SW 9 16.09 Fair CLR 18.9 7.8 49% 77.14 1017.5
14 23:53 E 6 16.09 Fair CLR 18.3 8.9 30 18.3 54% 77.14 1018.1
14 22:53 NE 7 16.09 Fair CLR 19.4 7.8 47% 77.14 1018.0
14 21:53 E 9 16.09 Fair CLR 22.2 7.8 40% 77.09 1017.2
14 20:53 E 17 16.09 A Few Clouds FEW120 24.4 7.2 33% 25 77.06 1017.0
14 19:53 SE 17 16.09 Fair CLR 27.2 7.8 29% 27 76.96 1016.1
14 18:53 N 22 16.09 NULL NULL 29.4 5.6 22% 28 76.91 1015.7
14 17:53 N 17 16.09 Fair CLR 29.4 6.7 34.4 27.2 24% 28 76.91 1015.8
14 16:53 NE 33 16.09 Thunderstorm and Breezy OVC120 27.8 9.4 32% 27 76.94 1016.2
14 15:53 N 19 G 30 16.09 Mostly Cloudy BKN120 33.9 5.6 17% 32 76.94 1014.4
14 14:53 Calm 16.09 Fair CLR 32.8 3.3 15% 31 76.99 1015.9
14 13:53 Vrbl 9 16.09 Fair CLR 31.7 3.3 16% 30 77.01 1016.0
14 12:53 Vrbl 11 16.09 Fair CLR 32.2 4.4 17% 30 77.11 1017.4
14 11:53 Vrbl 9 16.09 Fair CLR 30.6 5 30.6 13.3 20% 29 77.17 1018.4
14 10:53 E 11 16.09 Fair CLR 28.9 6.7 25% 28 77.22 1018.7
14 09:53 NE 7 16.09 Fair CLR 26.1 8.9 34% 26 77.24 1018.8
14 08:53 NE 6 16.09 Fair CLR 22.8 7.8 38% 77.27 1020.3
14 07:53 Calm 16.09 Fair CLR 18.3 7.8 51% 77.27 1020.5
14 06:53 N 6 16.09 Fair CLR 15 6.7 58% 77.24 1020.4
14 05:53 NW 6 16.09 Fair CLR 15 5.6 20 13.9 54% 77.22 1020.1
14 04:53 Calm 16.09 Fair CLR 16.1 5.6 50% 77.17 1019.1
14 03:53 Calm 16.09 Fair CLR 16.7 5.6 48% 77.17 1018.3
14 02:53 W 6 16.09 Fair CLR 15 6.1 56% 77.19 1018.7
14 01:53 Calm 16.09 Fair CLR 18.3 5.6 43% 77.22 1018.4
14 00:53 E 9 16.09 Fair CLR 16.1 5 48% 77.22 1019.3
13 23:53 NE 11 16.09 Fair CLR 18.3 5 28.9 18.3 42% 77.22 1019.1
13 22:53 E 7 16.09 Fair CLR 21.1 5.6 37% 77.19 1018.6
13 21:53 E 17 G 30 16.09 Fair CLR 24.4 5.6 30% 25 77.17 1018.4
13 20:53 SE 6 16.09 Fair CLR 23.9 5 29% 25 77.09 1018.1
13 19:53 N 13 16.09 Fair CLR 26.1 7.2 30% 26 77.04 1017.7
13 18:53 N 15 16.09 Fair CLR 27.8 6.7 26% 27 77.04 1018.6
13 17:53 NW 9 16.09 Fair CLR 28.3 6.1 33.3 28.3 24% 27 77.06 1019.0
13 16:53 E 9 16.09 Fair CLR 28.9 5.6 23% 27 77.04 1018.8
13 15:53 NE 33 16.09 Fair and Breezy CLR 31.7 6.1 20% 30 77.04 1017.7
13 14:53 Vrbl 6 16.09 Fair CLR 32.8 3.9 16% 31 77.04 1016.9
13 13:53 Vrbl 9 16.09 Fair CLR 32.2 3.9 17% 30 77.06 1017.4
13 12:53 Vrbl 6 16.09 Fair CLR 31.1 3.9 18% 29 77.14 1018.0
13 11:53 Vrbl 6 16.09 Fair CLR 28.9 6.7 29.4 9.4 25% 28 77.19 1019.1
13 10:53 Calm 16.09 Fair CLR 27.2 6.7 27% 26 77.22 1019.8
13 09:53 N 6 16.09 Fair CLR 24.4 6.7 32% 25 77.24 1020.1
13 08:53 S 6 16.09 Fair CLR 20.6 7.2 42% 77.29 1021.4
13 07:53 Calm 16.09 Fair CLR 16.7 6.7 52% 77.27 1021.2
13 06:53 N 11 16.09 Fair CLR 12.2 6.1 67% 77.27 1021.8
13 05:53 N 7 16.09 Fair CLR 10.6 6.1 18.9 9.4 74% 77.24 1021.7
13 04:53 Calm 16.09 Fair CLR 10 5.6 74% 77.19 1021.0
13 03:53 N 6 16.09 Fair CLR 11.7 5.6 66% 77.11 1019.6
13 02:53 N 11 16.09 Fair CLR 13.3 6.7 65% 77.11 1018.5
13 01:53 Calm 16.09 Fair CLR 13.9 6.7 62% 77.11 1018.6
13 00:53 E 9 16.09 Fair CLR 16.1 5.6 50% 77.11 1018.2
12 23:53 N 7 16.09 Fair CLR 17.8 5.6 26.7 17.8 45% 77.09 1017.7
12 22:53 S 7 16.09 Fair CLR 18.3 6.1 45% 77.01 1017.0
12 21:53 Calm 16.09 Fair CLR 21.1 5.6 37% 77.01 1016.8
12 20:53 NE 17 16.09 Fair CLR 21.7 5.6 35% 76.99 1017.2
12 19:53 NW 17 G 35 16.09 Fair CLR 25.6 3.3 24% 25 76.96 1017.0
12 18:53 NW 37 G 61 16.09 Fair and Breezy CLR 26.1 3.9 24% 26 77.01 1018.7
12 17:53 W 24 G 35 16.09 Fair CLR 26.7 3.9 31.7 26.7 23% 26 76.94 1017.4
Date Time (mdt) Wind (kph) Vis. (km) Weather Sky Cond. Air Dwpt Max. Min. Relative Humidity Wind Chill (°C) Heat Index (°C) altimeter (cm) sea level (mb) 1 hr 3 hr 6 hr
6 hour
Temperature (ºC) Pressure Precipitation (cm)